Regional Weather Roundup
Issued by NWS

Home | Current Version | Previous Version | Graphics & Text | Print | Product List | Glossary Off
Versions: 1 2 3 4 5 6 7 8 9 10 11 12 13 14 15 16 17 18 19 20 21 22 23 24 25 26 27 28 29 30 31 32 33 34 35 36 37 38 39 40 41 42 43 44 45 46 47 48 49 50

000
ASUS43 KMKX 141000
RWRWI

WISCONSIN REGIONAL WEATHER ROUNDUP
NATIONAL WEATHER SERVICE MILWAUKEE/SULLIVAN WI
400 AM CST SUN FEB 14 2016

NOTE: "FAIR" INDICATES FEW OR NO CLOUDS BELOW 12,000 FEET WITH NO
SIGNIFICANT WEATHER AND/OR OBSTRUCTIONS TO VISIBILITY.

WIZ001-002-006>008-014>016-023>028-141100-
NORTHWEST WISCONSIN

CITY           SKY/WX    TMP DP  RH WIND       PRES   REMARKS
SUPERIOR ARPT  CLOUDY   -12 -16  82 CALM      30.26F
ASHLAND        CLOUDY   -18 -23  77 CALM      30.28F
HAYWARD        CLOUDY   -14 -19  79 CALM      30.22F
SIREN          CLOUDY     4  -9  54 S8        30.21F WCI  -9
CUMBERLAND     CLOUDY     0 -13  55 SE7       30.21F WCI -13
RICE LAKE      CLOUDY    -1 -11  60 SE9       30.25F WCI -16
CHETEK         CLOUDY    -4 -13  67 E6        30.25F WCI -17
LADYSMITH      PTCLDY    -6 -14  66 SE5       30.27F WCI -17
EAU CLAIRE     NOT AVBL
MENOMONIE      CLOUDY     3  -7  64 E8        30.26F WCI -11
NEW RICHMOND   CLOUDY     6  -7  55 SE10      30.20F WCI  -8
OSCEOLA        CLOUDY     7  -5  56 SE8       30.23F WCI  -6
$$

WIZ003>005-009-010-017-018-141100-
NORTH CENTRAL WISCONSIN

CITY           SKY/WX    TMP DP  RH WIND       PRES   REMARKS
MANITOWISH WTR CLOUDY   -23 -29  74 CALM      30.24F
ARBOR VITAE    CLOUDY   -15 -21  74 CALM      30.24F
WOODRUFF       CLOUDY   -15 -21  74 CALM      30.24F
RHINELANDER    CLOUDY   -16 -21  78 E3        30.25F
EAGLE RIVER    CLOUDY   -19 -26  69 CALM      30.25F
LAND O LAKES   CLOUDY   -25 -31  72 CALM      30.25F
PHILLIPS       CLOUDY   -20 -26  74 CALM      30.23F
TOMAHAWK       CLOUDY   -23 -28  75 CALM      30.26F
MEDFORD        CLOUDY   -11 -17  76 SE3       30.24F
MERRILL        CLOUDY   -20 -26  74 CALM      30.29F
$$

WIZ029-030-035-036-043>047-141100-
CENTRAL WISCONSIN

CITY           SKY/WX    TMP DP  RH WIND       PRES   REMARKS
WAUSAU         CLOUDY   -11 -16  78 CALM      30.29F
MOSINEE        CLOUDY    -8 -15  71 CALM      30.30F
MARSHFIELD     CLOUDY    -6 -15  65 SE3       30.27F
STEVENS POINT  CLOUDY   -17 -22  76 CALM      30.32F
WAUPACA        CLOUDY   -10 -17  72 CALM      30.36F
WAUTOMA        NOT AVBL
WISC RAPIDS    CLOUDY    -9 -16  71 SE3       30.33F
CAMP DOUGLAS   NOT AVBL
$$

WIZ011>013-019>022-031-037>040-048>050-141100-
NORTHEAST WISCONSIN

CITY           SKY/WX    TMP DP  RH WIND       PRES   REMARKS
ANTIGO         CLOUDY   -17 -22  78 CALM      30.27F
SHAWANO        CLOUDY    -6 -11  79 CALM      30.37F
OCONTO         CLOUDY   -13 -17  79 CALM      30.39F
STURGEON BAY   CLOUDY    -2  -9  71 CALM      30.39F
GREEN BAY      CLOUDY    -9 -14  78 CALM      30.38F
MANITOWOC      NOT AVBL
APPLETON       CLOUDY    -2  -8  78 CALM      30.33F
CLINTONVILLE   CLOUDY    -9 -15  77 CALM      30.36F
OSHKOSH        CLOUDY    -5 -11  75 S3        30.35F
$$

WIZ032>034-041-042-053>061-141100-
SOUTHWEST WISCONSIN

CITY           SKY/WX    TMP DP  RH WIND       PRES   REMARKS
LA CROSSE      CLOUDY     8  -5  55 E9        30.28F WCI  -5
SPARTA         CLOUDY    -1  -8  74 CALM      30.30F
VIROQUA        CLOUDY     7  -4  61 SE12      30.24F WCI  -9
BOSCOBEL       CLOUDY     8  -2  63 NE3       30.32F
PRAIRIE DU CHI CLOUDY    12   0  60 E9        30.29F WCI  -1
PLATTEVILLE    CLOUDY    13   2  63 SE10      30.29F WCI   0
$$

WIZ056-057-062-063-064-067-068-141100-
SOUTH CENTRAL WISCONSIN

CITY           SKY/WX    TMP DP  RH WIND       PRES   REMARKS
REEDSBURG      CLOUDY    -4  -9  81 CALM      30.33F
BARABOO/DELLS  CLOUDY     0 -10  64 CALM      30.32F
LONE ROCK      NOT AVBL
MINERAL POINT  CLOUDY    12   1  62 SE9       30.27F WCI   0
MADISON        CLOUDY     6  -5  60 SE6       30.35F WCI  -4
MIDDLETON      CLOUDY     9  -2  61 SE7       30.35F WCI  -2
WATERTOWN      PTCLDY    -1  -5  81 CALM      30.36F
MONROE         CLOUDY    12   3  67 SE9       30.32S WCI   0
JANESVILLE     CLOUDY    12   1  62 SE7       30.36F WCI   2
$$

WIZ051-052-058>065-066-070>072-141100-
SOUTHEAST WISCONSIN

CITY           SKY/WX    TMP DP  RH WIND       PRES   REMARKS
MILWAUKEE      CLOUDY     4  -4  69 CALM      30.39F
WAUKESHA       CLOUDY    -2  -6  84 CALM      30.38F
MILWAUKEE/TIMM CLOUDY     1  -6  71 CALM      30.40F
RACINE         CLEAR      2  -6  69 VRB3      30.40F
BURLINGTON     CLOUDY    -3  -7  84 CALM      30.38F
KENOSHA        CLOUDY     2  -3  80 CALM      30.38F
FOND DU LAC    CLOUDY    -4 -11  72 CALM      30.36F
SHEBOYGAN      CLOUDY    -4 -10  75 CALM      30.37F
WEST BEND      CLOUDY    -6  -9  84 CALM      30.37F
JUNEAU         CLOUDY    -2  -8  72 SE5       30.36F WCI -12
$$

LSZ147-162-141100-
LAKE SUPERIOR

STATION/POSITION TIME  TEMP    WIND        PRES    WAVE
                       AIR SEA DIR/SP/G            HT/PER
                 (UTC) (F)     (DEG/KT/KT) (MB)    (FT/S)
DEVILS ISLAND    0900    6     200/  8/ 10 1028.3F
SAXON HARBOR     0840  -17                 1026.8F
$$

LMZ867-665-643>646-141100-
LAKE MICHIGAN

STATION/POSITION TIME  TEMP    WIND        PRES    WAVE
                       AIR SEA DIR/SP/G            HT/PER
                 (UTC) (F)     (DEG/KT/KT) (MB)    (FT/S)
CHAMBERS ISLAND  0900   -2     170/  3/  5 1029.1F
SISTER BAY       0905    0        CALM       N/A
ALGOMA LAKESHORE 0841             CALM       N/A
KEWAUNEE LAKESHO 0900   -2     300/  6/  7 1029.1F
SHEBOYGAN LAKESH 0900    7     280/  3/  4 1031.8F
PORT WASHINGTON  0900    4     290/  3/  3 1030.8
MILWAUKEE LAKESH 0910   11     300/  3/  4   N/A
KENOSHA   LAKESH 0900   10      CALM  /  5 1029.5F
$$

TC  - TEMPERATURE IN CELSIUS
VSB - VISIBILITY IN STATUTE MILES
WCI - WIND CHILL INDEX
HX  - HEAT INDEX




USA.gov is the U.S. government's official web portal to all federal, state and local government web resources and services.